Flag Weather past 2 weeks in Daly City, California, U.S.A.

Now
63 °F

Passing clouds.


Feels Like: 63 °F
Forecast: 51 / 62 °F
Wind: No wind

Location: San Francisco International Airport

Current Time: Nov 26, 2014 at 7:05:48 PM

Latest Report: Nov 26, 2014 at 5:56 PM


Visibility: 10 mi

Pressure: 30.20 "Hg

Humidity: 65%

Dew point: 51 °F

Location of Daly CityLocation

Historic Weather in Daly City — Graph

°F

Daly City temperature yesterday

Maximum temperature yesterday: 64 °F (at 1:56 PM)
Minimum temperature yesterday: 50 °F (at 2:56 AM)
Average temperature yesterday: 57 °F

Past Weeks' High & Low Weather Summary

 TemperatureHumidityPressure
High67 °F (Nov 26, 2:56 PM)100% (Nov 13, 1:56 AM)30.46 "Hg (Nov 13, 1:56 AM)
Low47 °F (Nov 24, 5:56 AM)27% (Nov 16, 12:56 PM)29.92 "Hg (Nov 13, 4:56 AM)
Average59 °F75%30.15 "Hg
* Reported Nov 11 5:56 PM — Nov 26 5:56 PM, Daly City, Weather by CustomWeather, © 2014

Note: Actual official high and low records may vary slightly from our data, if they occured in-between our weather recording intervals... More about our weather records

Advertising

Daly City weather history for previous 24 hours

 ConditionsComfort  
Time TempWeatherWind HumidityBarometerVisibility
5:56 PM
Nov 26
63 °FPassing clouds.No wind65%30.20 "Hg10 mi
4:56 PM64 °FPassing clouds.No wind65%30.20 "Hg9 mi
3:56 PM67 °FPartly sunny.No wind57%30.20 "Hg10 mi
2:56 PM67 °FScattered clouds.No wind59%30.21 "Hg10 mi
1:56 PM64 °FPassing clouds.6 mph68%30.21 "Hg8 mi
12:56 PM62 °FPassing clouds.5 mph73%30.23 "Hg8 mi
11:56 AM62 °FPassing clouds.3 mph70%30.25 "Hg8 mi
10:56 AM60 °FPassing clouds.5 mph72%30.28 "Hg8 mi
9:56 AM59 °FPassing clouds.3 mph69%30.31 "Hg8 mi
8:56 AM56 °FPassing clouds.6 mph75%30.31 "Hg8 mi
7:56 AM53 °FFog.3 mph86%30.31 "Hg8 mi
6:56 AM52 °FPassing clouds.3 mph93%30.29 "Hg8 mi
5:56 AM57 °FClear.10 mph74%30.29 "Hg10 mi
4:56 AM52 °FClear.5 mph86%30.30 "Hg10 mi
3:56 AM50 °FClear.No wind86%30.30 "Hg10 mi
2:56 AM53 °FClear.No wind86%30.30 "Hg10 mi
1:56 AM52 °FClear.No wind83%30.30 "Hg10 mi
12:56 AM52 °FClear.No wind86%30.31 "Hg10 mi
11:56 PM
Nov 25
54 °FClear.No wind86%30.33 "Hg10 mi
10:56 PM53 °FClear.No wind83%30.33 "Hg10 mi
9:56 PM55 °FClear.3 mph80%30.35 "Hg10 mi
8:56 PM58 °FClear.5 mph78%30.35 "Hg10 mi
7:56 PM60 °FPassing clouds.6 mph72%30.35 "Hg10 mi
Weather by CustomWeather, © 2014

See weather overviewHow to use our weather pages